Manteo, NC

6:41 PM EST on December 18, 2017 (GMT -0500)
Dare County Regional

Weather History for KMQI - December, 2011

Change the Weather History Date:

Friday, December 23, 2011

  Actual Average Record
Temperature  
Mean Temperature 60 °F -  
Max Temperature 68 °F 49 °F 72 °F (1990)
Min Temperature 51 °F 37 °F 22 °F (1989)
Degree Days  
Heating Degree Days 6    
Growing Degree Days 10 (Base 50)    
Moisture  
Dew Point 50 °F    
Average Humidity 74    
Maximum Humidity 94    
Minimum Humidity 59    
Precipitation  
Precipitation 0.00 in - - ()
Sea Level Pressure  
Sea Level Pressure 30.05 in    
Wind  
Wind Speed 15 mph (North)    
Max Wind Speed 26 mph    
Max Gust Speed 31 mph    
Visibility 10 miles    
Events      
Averages and records for this station are not official NWS values.
T = Trace of Precipitation, MM = Missing Value Source: NWS Daily Summary

Daily Weather History Graph

Daily Weather History Graph

Search for Another Location

Airport or City:

Trip Planner

Search our weather history database for the weather conditions in past years. The results will help you decide how hot, cold, wet, or windy it might be!

Date:

Astronomy

Dec. 23, 2011 Rise Set
Actual Time 7:10 AM EST 4:53 PM EST
Civil Twilight 6:41 AM EST 5:22 PM EST
Nautical Twilight 6:09 AM EST 5:54 PM EST
Astronomical Twilight 5:38 AM EST 6:25 PM EST
Moon 5:56 AM EST (12/23) 4:00 PM EST (12/23)
Length of Visible Light 10h 40m
Length of Day
9h 43m
Waning Crescent, 1% of the Moon is Illuminated
Dec 23
Waning Crescent
Dec 24
New
Jan 1
First Quarter
Jan 9
Full
Jan 16
Last Quarter

Hourly Weather History & Observations

Time (EST) Temp. Dew Point Humidity Pressure Visibility Wind Dir Wind Speed Gust Speed Precip Events Conditions
12:15 AM 60.8 °F 55.4 °F 82% 29.99 in 10.0 mi South 13.8 mph - N/A   Clear
12:35 AM 59.0 °F 55.4 °F 88% 29.99 in 10.0 mi South 12.7 mph - N/A   Clear
12:55 AM 59.0 °F 55.4 °F 88% 30.00 in 10.0 mi SSW 12.7 mph - N/A   Scattered Clouds
1:15 AM 60.8 °F 57.2 °F 88% 29.99 in 10.0 mi SSW 16.1 mph - N/A   Mostly Cloudy
1:35 AM 60.8 °F 57.2 °F 88% 29.97 in 10.0 mi SSW 17.3 mph - N/A   Scattered Clouds
1:55 AM 60.8 °F 57.2 °F 88% 29.96 in 10.0 mi SSW 17.3 mph - N/A   Clear
2:15 AM 60.8 °F 59.0 °F 94% 29.95 in 10.0 mi SSW 18.4 mph - N/A   Clear
2:35 AM 60.8 °F 59.0 °F 94% 29.92 in 10.0 mi SSW 20.7 mph - N/A   Clear
2:55 AM 62.6 °F 59.0 °F 88% 29.92 in 10.0 mi SSW 25.3 mph - N/A   Mostly Cloudy
3:15 AM 62.6 °F 59.0 °F 88% 29.91 in 10.0 mi SSW 26.5 mph - N/A   Mostly Cloudy
3:35 AM 62.6 °F 59.0 °F 88% 29.90 in 10.0 mi SSW 24.2 mph - N/A   Scattered Clouds
4:15 AM 62.6 °F 59.0 °F 88% 29.90 in 10.0 mi SW 19.6 mph 25.3 mph N/A   Clear
4:35 AM 64.4 °F 59.0 °F 83% 29.92 in 10.0 mi SW 20.7 mph 26.5 mph N/A   Clear
4:55 AM 66.2 °F 59.0 °F 78% 29.92 in 10.0 mi WSW 24.2 mph 27.6 mph N/A   Clear
5:15 AM 66.2 °F 59.0 °F 78% 29.93 in 10.0 mi SW 25.3 mph 31.1 mph N/A   Clear
5:35 AM 64.4 °F 59.0 °F 83% 29.94 in 10.0 mi WSW 18.4 mph 26.5 mph N/A   Clear
5:55 AM 66.2 °F 59.0 °F 78% 29.95 in 10.0 mi WSW 19.6 mph 26.5 mph N/A   Clear
6:15 AM 66.2 °F 59.0 °F 78% 29.96 in 10.0 mi WSW 17.3 mph 24.2 mph N/A   Mostly Cloudy
6:35 AM 64.4 °F 59.0 °F 83% 29.96 in 10.0 mi SW 17.3 mph - N/A   Overcast
6:55 AM 64.4 °F 59.0 °F 83% 29.97 in 10.0 mi SW 13.8 mph - N/A   Overcast
7:15 AM 64.4 °F 59.0 °F 83% 29.99 in 10.0 mi WSW 13.8 mph 19.6 mph N/A   Overcast
7:35 AM 66.2 °F 59.0 °F 78% 30.00 in 10.0 mi WSW 16.1 mph 20.7 mph N/A   Overcast
7:55 AM 64.4 °F 57.2 °F 77% 30.00 in 10.0 mi WSW 9.2 mph - N/A   Overcast
8:55 AM 66.2 °F 59.0 °F 78% 30.03 in 10.0 mi WSW 8.1 mph - N/A   Clear
9:15 AM 66.2 °F 59.0 °F 78% 30.03 in 10.0 mi West 8.1 mph - N/A   Scattered Clouds
9:35 AM 66.2 °F 59.0 °F 78% 30.05 in 10.0 mi West 6.9 mph - N/A   Scattered Clouds
9:55 AM 68.0 °F 59.0 °F 73% 30.06 in 10.0 mi WNW 5.8 mph - N/A   Scattered Clouds
10:15 AM 59.0 °F 46.4 °F 63% 30.09 in 10.0 mi NNE 16.1 mph 27.6 mph N/A   Mostly Cloudy
10:35 AM 57.2 °F 44.6 °F 63% 30.09 in 10.0 mi NNE 17.3 mph 23.0 mph N/A   Overcast
10:55 AM 59.0 °F 44.6 °F 59% 30.09 in 10.0 mi NNE 17.3 mph 26.5 mph N/A   Mostly Cloudy
11:15 AM 57.2 °F 44.6 °F 63% 30.08 in 10.0 mi NNE 15.0 mph 23.0 mph N/A   Mostly Cloudy
11:35 AM 57.2 °F 44.6 °F 63% 30.08 in 10.0 mi North 17.3 mph 23.0 mph N/A   Overcast
11:55 AM 57.2 °F 44.6 °F 63% 30.07 in 10.0 mi North 15.0 mph 23.0 mph N/A   Overcast
12:35 PM 55.4 °F 42.8 °F 63% 30.06 in 10.0 mi NNE 15.0 mph 21.9 mph N/A   Overcast
12:55 PM 57.2 °F 42.8 °F 59% 30.06 in 10.0 mi NNE 11.5 mph 19.6 mph N/A   Overcast
1:15 PM 57.2 °F 42.8 °F 59% 30.06 in 10.0 mi NNE 10.4 mph - N/A   Overcast
1:55 PM 57.2 °F 44.6 °F 63% 30.07 in 10.0 mi NNE 11.5 mph - N/A   Overcast
2:15 PM 57.2 °F 42.8 °F 59% 30.07 in 10.0 mi NNE 12.7 mph 17.3 mph N/A   Overcast
2:35 PM 57.2 °F 44.6 °F 63% 30.07 in 10.0 mi NNE 10.4 mph - N/A   Overcast
2:55 PM 55.4 °F 44.6 °F 67% 30.08 in 10.0 mi NNE 9.2 mph 17.3 mph N/A   Overcast
3:15 PM 55.4 °F 44.6 °F 67% 30.09 in 10.0 mi NE 11.5 mph - N/A   Overcast
3:35 PM 55.4 °F 44.6 °F 67% 30.11 in 10.0 mi NE 9.2 mph - N/A   Overcast
3:55 PM 55.4 °F 44.6 °F 67% 30.11 in 10.0 mi NE 9.2 mph - N/A   Overcast
4:15 PM 55.4 °F 44.6 °F 67% 30.11 in 10.0 mi NE 11.5 mph - N/A   Overcast
4:35 PM 53.6 °F 44.6 °F 72% 30.13 in 10.0 mi NE 10.4 mph - N/A   Mostly Cloudy
4:55 PM 53.6 °F 44.6 °F 72% 30.13 in 10.0 mi ENE 10.4 mph 16.1 mph N/A   Scattered Clouds
5:15 PM 53.6 °F 44.6 °F 72% 30.14 in 10.0 mi NE 11.5 mph - N/A   Clear
5:35 PM 53.6 °F 44.6 °F 72% 30.15 in 10.0 mi NE 13.8 mph 20.7 mph N/A   Mostly Cloudy
5:55 PM 53.6 °F 44.6 °F 72% 30.16 in 10.0 mi NE 11.5 mph - N/A   Overcast
6:15 PM 53.6 °F 42.8 °F 67% 30.17 in 10.0 mi NNE 17.3 mph 24.2 mph N/A   Mostly Cloudy
6:35 PM 53.6 °F 42.8 °F 67% 30.18 in 10.0 mi NNE 16.1 mph 24.2 mph N/A   Mostly Cloudy
6:55 PM 53.6 °F 42.8 °F 67% 30.19 in 10.0 mi NE 13.8 mph 20.7 mph N/A   Overcast
7:15 PM 53.6 °F 42.8 °F 67% 30.19 in 10.0 mi NNE 13.8 mph - N/A   Overcast
7:35 PM 51.8 °F 42.8 °F 71% 30.20 in 10.0 mi NNE 11.5 mph - N/A   Mostly Cloudy
8:15 PM 51.8 °F 42.8 °F 71% 30.20 in 10.0 mi NE 8.1 mph - N/A   Scattered Clouds
8:35 PM 51.8 °F 42.8 °F 71% 30.20 in 10.0 mi NNE 9.2 mph 17.3 mph N/A   Scattered Clouds
8:55 PM 51.8 °F 41.0 °F 67% 30.21 in 10.0 mi NNE 9.2 mph - N/A   Mostly Cloudy
9:15 PM 51.8 °F 41.0 °F 67% 30.21 in 10.0 mi NNE 11.5 mph - N/A   Overcast
9:35 PM 51.8 °F 41.0 °F 67% 30.20 in 10.0 mi NNE 13.8 mph 17.3 mph N/A   Mostly Cloudy
9:55 PM 51.8 °F 41.0 °F 67% 30.21 in 10.0 mi NNE 9.2 mph - N/A   Overcast
10:15 PM 51.8 °F 41.0 °F 67% 30.21 in 10.0 mi NNE 9.2 mph - N/A   Scattered Clouds
10:35 PM 51.8 °F 41.0 °F 67% 30.21 in 10.0 mi NNE 10.4 mph - N/A   Scattered Clouds
10:55 PM 50.0 °F 41.0 °F 71% 30.22 in 10.0 mi NNE 6.9 mph - N/A   Scattered Clouds
11:15 PM 51.8 °F 41.0 °F 67% 30.22 in 10.0 mi NNE 5.8 mph - N/A   Mostly Cloudy
11:35 PM 51.8 °F 42.8 °F 71% 30.22 in 10.0 mi North 5.8 mph - N/A   Overcast
11:55 PM 51.8 °F 41.0 °F 67% 30.22 in 10.0 mi NNE 6.9 mph - N/A   Overcast